Hourly Data Report for July 12, 2021

LONDON CS
ONTARIO
Current Station Operator: ECCC - MSC

43°02'00.000" N
81°09'00.000" W
278.00 m
6144478
71622
WSN

Download Data

Hourly Data (July 2021)
Hourly Data Report for July 12, 2021
TIME
LST
Temp Definition
°C
Dew Point Definition
°C
Rel Hum Definition
%
Precip. Amount Definition
mm

Wind Dir Definition
10's deg

Wind Spd Definition
km/h
Visibility Definition
km
Stn Press Definition
kPa
Hmdx Definition


Wind Chill Definition


Weather Definition


00:00 18.1 15.2 83 0.0       98.44     LegendNANA
01:00 17.2 15.2 88 0.0       98.48     LegendNANA
02:00 17.3 15.3 88 0.0       98.50     LegendNANA
03:00 17.2 15.5 90 0.0       98.49     LegendNANA
04:00 17.2 15.9 92 0.0       98.52     LegendNANA
05:00 17.5 16.1 91 0.0       98.55     LegendNANA
06:00 17.9 16.2 90 0.0       98.57     LegendNANA
07:00 18.7 16.6 87 0.0       98.65     LegendNANA
08:00 19.2 16.8 86 0.0       98.68     LegendNANA
09:00 19.6 16.8 84 0.0       98.71     LegendNANA
10:00 20.5 17.5 83 0.0       98.72 26   LegendNANA
11:00 20.5 17.5 83 0.0       98.78 26   LegendNANA
12:00 21.0 17.5 81 0.0       98.79 27   LegendNANA
13:00 21.3 17.4 78 0.0       98.78 27   LegendNANA
14:00 21.4 17.6 79 0.0       98.76 27   LegendNANA
15:00 22.6 18.6 78 0.0       98.72 29   LegendNANA
16:00 22.8 17.9 74 0.0       98.71 29   LegendNANA
17:00 22.4 18.2 77 0.0       98.70 29   LegendNANA
18:00 22.3 18.0 77 0.0       98.68 28   LegendNANA
19:00 21.7 17.7 78 0.0       98.67 27   LegendNANA
20:00 20.9 17.5 81 0.0       98.71 27   LegendNANA
21:00 20.1 17.8 87 0.0       98.72 26   LegendNANA
22:00 18.6 16.9 90 0.0       98.70     LegendNANA
23:00 18.3 17.4 94 0.0       98.69     LegendNANA

Notes on Data Quality.

Legend

  • E = Estimated
  • M = Missing
  • NA = Not Available*
  • [empty] = Indicates an unobserved value
Date modified: